Kalaeloa, HI

10:36 PM HST on May 26, 2017 (GMT -1000)
Kalaeloa (John Rodgers Field)

Weather History for PHJR - November, 2011

Change the Weather History Date:

Tuesday, November 8, 2011

  Actual Average (PHHI) Record (PHHI)
Temperature  
Mean Temperature 77 °F -  
Max Temperature 84 °F 77 °F 81 °F (2007)
Min Temperature 70 °F 66 °F 62 °F (2014)
Cooling Degree Days 12    
Growing Degree Days 27 (Base 50)    
Moisture  
Dew Point 63 °F    
Average Humidity 65    
Maximum Humidity 81    
Minimum Humidity 47    
Precipitation  
Precipitation 0.00 in - - ()
Sea Level Pressure  
Sea Level Pressure 30.09 in    
Wind  
Wind Speed 4 mph (ENE)    
Max Wind Speed 14 mph    
Max Gust Speed 23 mph    
Visibility 10 miles    
Events      
Averages and records for this station are not official NWS values.
T = Trace of Precipitation, MM = Missing Value Source: NWS Daily Summary

Daily Weather History Graph

Daily Weather History Graph

Search for Another Location

Airport or City:

Trip Planner

Search our weather history database for the weather conditions in past years. The results will help you decide how hot, cold, wet, or windy it might be!

Date:

Astronomy

Nov. 08, 2011 Rise Set
Actual Time 6:38 AM HST 5:52 PM HST
Civil Twilight 6:15 AM HST 6:15 PM HST
Nautical Twilight 5:49 AM HST 6:42 PM HST
Astronomical Twilight 5:22 AM HST 7:08 PM HST
Moon 4:34 PM HST (11/8) 4:55 AM HST (11/8)
Length of Visible Light 12h 00m
Length of Day
11h 13m
Waxing Gibbous, 97% of the Moon is Illuminated
Nov 8
Waxing Gibbous
Nov 10
Full
Nov 18
Last Quarter
Nov 24
New
Dec 1
First Quarter

Hourly Weather History & Observations

Time (HST) Temp. Heat Index Dew Point Humidity Pressure Visibility Wind Dir Wind Speed Gust Speed Precip Events Conditions
12:53 AM 72.0 °F - 64.9 °F 78% 30.10 in 10.0 mi Variable 3.5 mph - N/A   Partly Cloudy
1:53 AM 72.0 °F - 64.9 °F 78% 30.09 in 10.0 mi ENE 3.5 mph - N/A   Partly Cloudy
2:53 AM 72.0 °F - 64.0 °F 76% 30.07 in 10.0 mi Calm Calm - N/A   Partly Cloudy
3:46 AM 71.6 °F - 62.6 °F 73% 30.05 in 10.0 mi Calm Calm - N/A   Partly Cloudy
3:53 AM 71.1 °F - 63.0 °F 75% 30.07 in 10.0 mi Calm Calm - N/A   Scattered Clouds
4:53 AM 72.0 °F - 63.0 °F 73% 30.07 in 10.0 mi Calm Calm - N/A   Mostly Cloudy
5:53 AM 71.1 °F - 64.0 °F 78% 30.09 in 10.0 mi Calm Calm - N/A   Clear
6:53 AM 70.0 °F - 64.0 °F 81% 30.11 in 10.0 mi Calm Calm - N/A   Partly Cloudy
7:53 AM 75.0 °F - 64.9 °F 71% 30.12 in 10.0 mi Variable 3.5 mph - N/A   Scattered Clouds
8:53 AM 80.1 °F 81.9 °F 64.9 °F 60% 30.13 in 10.0 mi Variable 5.8 mph - N/A   Mostly Cloudy
9:53 AM 81.0 °F 82.5 °F 64.0 °F 56% 30.14 in 10.0 mi East 8.1 mph 17.3 mph N/A   Partly Cloudy
10:53 AM 82.9 °F 84.4 °F 64.0 °F 53% 30.13 in 10.0 mi ENE 10.4 mph 18.4 mph N/A   Mostly Cloudy
11:53 AM 82.9 °F 84.4 °F 64.0 °F 53% 30.10 in 10.0 mi East 13.8 mph 21.9 mph N/A   Partly Cloudy
12:53 PM 84.0 °F 84.5 °F 62.1 °F 47% 30.08 in 10.0 mi ENE 10.4 mph 23.0 mph N/A   Partly Cloudy
1:53 PM 84.0 °F 84.5 °F 62.1 °F 47% 30.06 in 10.0 mi East 8.1 mph - N/A   Scattered Clouds
2:53 PM 82.0 °F 83.0 °F 62.1 °F 51% 30.06 in 10.0 mi ENE 11.5 mph 16.1 mph N/A   Partly Cloudy
3:53 PM 81.0 °F 82.2 °F 63.0 °F 54% 30.05 in 10.0 mi Variable 6.9 mph - N/A   Scattered Clouds
4:53 PM 79.0 °F - 62.1 °F 56% 30.06 in 10.0 mi ENE 5.8 mph 18.4 mph N/A   Scattered Clouds
5:53 PM 77.0 °F - 63.0 °F 62% 30.08 in 10.0 mi ENE 8.1 mph - N/A   Clear
6:53 PM 75.9 °F - 63.0 °F 64% 30.10 in 10.0 mi ENE 4.6 mph - N/A   Clear
7:53 PM 75.9 °F - 63.0 °F 64% 30.12 in 10.0 mi Variable 5.8 mph - N/A   Clear
8:53 PM 75.0 °F - 63.0 °F 66% 30.12 in 10.0 mi ENE 4.6 mph - N/A   Clear
9:53 PM 75.0 °F - 64.0 °F 69% 30.12 in 10.0 mi Variable 3.5 mph - N/A   Clear
10:53 PM 73.9 °F - 63.0 °F 68% 30.12 in 10.0 mi East 4.6 mph - N/A   Clear
11:53 PM 71.1 °F - 64.0 °F 78% 30.11 in 10.0 mi Calm Calm - N/A   Scattered Clouds